Wichita Falls, TX

9:18 PM CDT on June 22, 2017 (GMT -0500)
Wichita Falls

Weather History for KCWC - June, 2013

Change the Weather History Date:

Thursday, June 13, 2013

  Actual Average (KSPS) Record (KSPS)
Temperature  
Mean Temperature 85 °F -  
Max Temperature 97 °F 87 °F 108 °F (1942)
Min Temperature 73 °F 65 °F 55 °F (1985)
Cooling Degree Days 20    
Growing Degree Days 35 (Base 50)    
Moisture  
Dew Point 65 °F    
Average Humidity 51    
Maximum Humidity 77    
Minimum Humidity 28    
Precipitation  
Precipitation 0.00 in - - ()
Sea Level Pressure  
Sea Level Pressure 29.98 in    
Wind  
Wind Speed 7 mph (South)    
Max Wind Speed 13 mph    
Max Gust Speed 18 mph    
Visibility 10 miles    
Events      
Averages and records for this station are not official NWS values.
T = Trace of Precipitation, MM = Missing Value Source: NWS Daily Summary

Daily Weather History Graph

Daily Weather History Graph

Search for Another Location

Airport or City:

Trip Planner

Search our weather history database for the weather conditions in past years. The results will help you decide how hot, cold, wet, or windy it might be!

Date:

Astronomy

Jun. 13, 2013 Rise Set
Actual Time 6:22 AM CDT 8:45 PM CDT
Civil Twilight 5:53 AM CDT 9:14 PM CDT
Nautical Twilight 5:17 AM CDT 9:50 PM CDT
Astronomical Twilight 4:38 AM CDT 10:29 PM CDT
Moon 10:50 AM CDT (6/13) No Moon Set
Length of Visible Light 15h 21m
Length of Day
14h 23m
Waxing Crescent, 22% of the Moon is Illuminated
Jun 13
Waxing Crescent
Jun 16
First Quarter
Jun 23
Full
Jun 29
Last Quarter
Jul 8
New

Hourly Weather History & Observations

Time (CDT) Temp. Heat Index Dew Point Humidity Pressure Visibility Wind Dir Wind Speed Gust Speed Precip Events Conditions
12:15 AM 78.8 °F - 67.1 °F 67% 29.98 in 10.0 mi SSE 5.8 mph - N/A   Clear
12:35 AM 78.1 °F - 67.1 °F 69% 29.98 in 10.0 mi SSE 8.1 mph - N/A   Clear
12:55 AM 78.6 °F - 66.7 °F 67% 29.98 in 10.0 mi SSE 6.9 mph - N/A   Clear
1:15 AM 77.9 °F - 66.7 °F 68% 29.98 in 10.0 mi SSE 5.8 mph - N/A   Clear
1:35 AM 77.0 °F - 66.7 °F 70% 29.98 in 10.0 mi SSE 5.8 mph - N/A   Clear
1:55 AM 75.9 °F - 67.1 °F 74% 29.98 in 10.0 mi SSE 5.8 mph - N/A   Clear
2:15 AM 76.1 °F - 66.4 °F 72% 29.98 in 10.0 mi SSE 8.1 mph - N/A   Clear
2:35 AM 76.3 °F - 66.2 °F 71% 29.98 in 10.0 mi SSE 6.9 mph - N/A   Clear
2:55 AM 75.6 °F - 66.2 °F 73% 29.99 in 10.0 mi SSE 4.6 mph - N/A   Clear
3:15 AM 74.5 °F - 66.2 °F 75% 29.98 in 10.0 mi SSE 4.6 mph - N/A   Clear
3:35 AM 73.9 °F - 66.2 °F 77% 29.98 in 10.0 mi SSE 4.6 mph - N/A   Clear
3:55 AM 74.1 °F - 66.2 °F 76% 29.99 in 10.0 mi SSE 3.5 mph - N/A   Clear
4:15 AM 74.3 °F - 66.2 °F 76% 29.98 in 10.0 mi South 3.5 mph - N/A   Clear
4:35 AM 74.3 °F - 66.4 °F 76% 29.99 in 10.0 mi South 4.6 mph - N/A   Clear
4:55 AM 75.4 °F - 66.6 °F 74% 29.99 in 10.0 mi South 3.5 mph - N/A   Clear
5:15 AM 75.0 °F - 66.6 °F 75% 30.00 in 10.0 mi South 4.6 mph - N/A   Clear
5:35 AM 75.0 °F - 67.1 °F 76% 30.00 in 10.0 mi South 5.8 mph - N/A   Clear
5:55 AM 76.8 °F - 66.6 °F 70% 30.01 in 10.0 mi SSW 6.9 mph - N/A   Clear
6:15 AM 77.4 °F - 66.2 °F 68% 30.02 in 10.0 mi South 4.6 mph - N/A   Clear
6:35 AM 77.4 °F - 65.8 °F 67% 30.03 in 10.0 mi South 5.8 mph - N/A   Clear
6:55 AM 77.0 °F - 66.0 °F 69% 30.03 in 10.0 mi South 5.8 mph - N/A   Clear
7:15 AM 76.8 °F - 66.2 °F 70% 30.04 in 10.0 mi South 4.6 mph - N/A   Clear
7:35 AM 78.3 °F - 65.7 °F 65% 30.04 in 10.0 mi SSW 5.8 mph - N/A   Clear
7:55 AM 79.0 °F - 65.8 °F 64% 30.04 in 10.0 mi SSW 5.8 mph - N/A   Clear
8:15 AM 80.2 °F 82.2 °F 65.7 °F 61% 30.04 in 10.0 mi SSW 8.1 mph - N/A   Clear
8:35 AM 81.7 °F 83.8 °F 66.2 °F 59% 30.04 in 10.0 mi SSW 6.9 mph - N/A   Clear
8:55 AM 82.9 °F 85.0 °F 65.8 °F 56% 30.05 in 10.0 mi SSW 8.1 mph - N/A   Clear
9:15 AM 84.2 °F 86.3 °F 66.0 °F 54% 30.06 in 10.0 mi SW 10.4 mph 16.1 mph N/A   Clear
9:35 AM 85.1 °F 87.4 °F 66.0 °F 53% 30.06 in 10.0 mi SSW 10.4 mph - N/A   Clear
9:55 AM 86.4 °F 88.7 °F 66.4 °F 51% 30.06 in 10.0 mi SW 5.8 mph - N/A   Clear
10:15 AM 87.3 °F 89.5 °F 66.2 °F 49% 30.06 in 10.0 mi WSW 8.1 mph - N/A   Clear
10:35 AM 88.2 °F 90.6 °F 66.0 °F 48% 30.06 in 10.0 mi SW 5.8 mph - N/A   Clear
10:55 AM 89.2 °F 91.6 °F 66.0 °F 46% 30.06 in 10.0 mi WSW 5.8 mph - N/A   Clear
11:15 AM 89.6 °F 91.8 °F 65.5 °F 45% 30.06 in 10.0 mi SW 4.6 mph - N/A   Clear
11:35 AM 90.5 °F 92.2 °F 64.8 °F 42% 30.05 in 10.0 mi SSW 6.9 mph - N/A   Clear
11:55 AM 91.4 °F 93.2 °F 64.9 °F 41% 30.05 in 10.0 mi WSW 4.6 mph - N/A   Clear
12:15 PM 92.1 °F 93.6 °F 64.0 °F 39% 30.05 in 10.0 mi SW 6.9 mph - N/A   Clear
12:35 PM 93.2 °F 95.3 °F 64.9 °F 39% 30.05 in 10.0 mi SSW 4.6 mph - N/A   Clear
12:55 PM 92.5 °F 94.6 °F 64.8 °F 40% 30.04 in 10.0 mi South 10.4 mph - N/A   Scattered Clouds
1:15 PM 93.6 °F 95.0 °F 63.9 °F 37% 30.03 in 10.0 mi SW 3.5 mph - N/A   Scattered Clouds
1:35 PM 93.7 °F 94.9 °F 63.0 °F 36% 30.02 in 10.0 mi SSE 8.1 mph - N/A   Scattered Clouds
1:55 PM 95.4 °F 96.6 °F 63.0 °F 34% 30.02 in 10.0 mi South 6.9 mph - N/A   Clear
2:15 PM 95.4 °F 95.7 °F 61.5 °F 32% 30.00 in 10.0 mi ESE 9.2 mph - N/A   Clear
2:35 PM 95.7 °F 96.3 °F 61.5 °F 32% 30.00 in 10.0 mi South 9.2 mph 17.3 mph N/A   Clear
2:55 PM 95.7 °F 96.3 °F 61.5 °F 32% 29.99 in 10.0 mi South 10.4 mph - N/A   Scattered Clouds
3:15 PM 96.4 °F 97.4 °F 61.9 °F 32% 29.98 in 10.0 mi SSE 6.9 mph 16.1 mph N/A   Clear
3:35 PM 96.8 °F 97.5 °F 61.7 °F 31% 29.97 in 10.0 mi South 10.4 mph 17.3 mph N/A   Clear
3:55 PM 96.6 °F 97.7 °F 62.1 °F 32% 29.96 in 10.0 mi South 6.9 mph 17.3 mph N/A   Clear
4:15 PM 97.2 °F 98.1 °F 61.9 °F 31% 29.95 in 10.0 mi SSE 10.4 mph 18.4 mph N/A   Clear
4:35 PM 96.6 °F 97.3 °F 61.5 °F 31% 29.94 in 10.0 mi South 4.6 mph - N/A   Clear
4:55 PM 97.3 °F 97.9 °F 61.2 °F 30% 29.93 in 10.0 mi South 9.2 mph - N/A   Clear
5:15 PM 97.2 °F 98.1 °F 61.7 °F 31% 29.92 in 10.0 mi South 5.8 mph - N/A   Clear
5:35 PM 97.3 °F 98.4 °F 62.2 °F 31% 29.92 in 10.0 mi SE 10.4 mph 16.1 mph N/A   Clear
5:55 PM 97.0 °F 97.8 °F 61.3 °F 31% 29.91 in 10.0 mi SE 6.9 mph 16.1 mph N/A   Clear
6:15 PM 97.2 °F 97.6 °F 61.3 °F 30% 29.91 in 10.0 mi ESE 9.2 mph - N/A   Clear
6:35 PM 96.8 °F 97.1 °F 61.0 °F 30% 29.91 in 10.0 mi SE 11.5 mph - N/A   Clear
6:55 PM 96.8 °F 97.1 °F 61.0 °F 30% 29.91 in 10.0 mi SE 12.7 mph 17.3 mph N/A   Clear
7:15 PM 96.4 °F 95.7 °F 58.3 °F 28% 29.90 in 10.0 mi SE 10.4 mph - N/A   Clear
7:35 PM 95.9 °F 95.3 °F 58.6 °F 29% 29.90 in 10.0 mi SE 10.4 mph - N/A   Clear
7:55 PM 95.2 °F 94.7 °F 59.4 °F 30% 29.91 in 10.0 mi ESE 8.1 mph - N/A   Clear
8:15 PM 93.6 °F 95.5 °F 64.4 °F 38% 29.91 in 10.0 mi ESE 8.1 mph - N/A   Clear
8:35 PM 91.8 °F 93.8 °F 64.9 °F 41% 29.91 in 10.0 mi ESE 10.4 mph - N/A   Clear
8:55 PM 90.3 °F 92.6 °F 65.5 °F 44% 29.91 in 10.0 mi East 6.9 mph - N/A   Clear
9:15 PM 88.9 °F 91.4 °F 66.2 °F 47% 29.92 in 10.0 mi East 8.1 mph - N/A   Clear
9:35 PM 88.0 °F 90.0 °F 65.7 °F 47% 29.92 in 10.0 mi ESE 10.4 mph - N/A   Clear
9:55 PM 87.1 °F 88.9 °F 65.5 °F 48% 29.93 in 10.0 mi ESE 8.1 mph - N/A   Clear
10:15 PM 86.2 °F 88.4 °F 65.8 °F 51% 29.94 in 10.0 mi ESE 8.1 mph - N/A   Clear
10:35 PM 85.5 °F 87.4 °F 65.3 °F 51% 29.95 in 10.0 mi SE 6.9 mph - N/A   Clear
10:55 PM 85.1 °F 87.1 °F 65.5 °F 52% 29.95 in 10.0 mi SE 8.1 mph - N/A   Clear
11:15 PM 84.4 °F 86.6 °F 65.8 °F 54% 29.95 in 10.0 mi SE 6.9 mph - N/A   Clear
11:35 PM 82.9 °F 85.0 °F 65.8 °F 56% 29.95 in 10.0 mi SSE 6.9 mph - N/A   Clear
11:55 PM 81.3 °F 83.6 °F 66.7 °F 61% 29.96 in 10.0 mi SSE 6.9 mph - N/A   Clear